Location: Aufkirchen
(47.9603°N, 11.3653°E)
Time: 06:08:47
(UTC+01:00)

Transit 4A - Pass Details

Date: 03 December 2020
Orbit: 864 x 980 km, 66.8° (Epoch: 26 January)

Event Time Altitude Azimuth Distance (km) Brightness Sun altitude
Rises 13:07:38 0° 321° (NW) 3,691 10.7 18.4°
Reaches altitude 10° 13:11:06 10° 339° (NNW) 2,737 10.0 18.3°
Maximum altitude 13:15:31 19° 23° (NNE) 2,143 9.4 18.1°
Drops below altitude 10° 13:19:52 10° 67° (ENE) 2,701 10.0 17.8°
Sets 13:23:15 0° 85° (E) 3,627 10.7 17.6°
